Hourly Weather Roundup
Issued by NWS

Home | Current Version | Previous Version | Text Only | Print | Product List | Glossary On
Versions: 1 2 3 4 5 6 7 8 9 10 11 12 13 14 15 16 17 18 19 20 21 22 23 24 25 26 27 28 29 30 31 32 33 34 35 36 37 38 39 40 41 42 43 44 45 46 47 48 49 50
000
NZUS43 KILX 220710
HWRCRS

NWR Hourly Weather Roundup
National Weather Service Lincoln IL
200 AM CDT FRI SEP 22 2017


CITY           SKY/WX    TMP DP  RH WIND       PRES   REMARKS
Champaign      NOT AVBL
Lawrenceville  CLEAR     71  70  96 CALM      30.06R
Peoria         CLEAR     76  68  76 S7        30.02R
Springfield    CLOUDY    74  68  81 SE6       30.03R
$$


CITY           SKY/WX    TMP DP  RH WIND       PRES   REMARKS
Bloomington    PTCLDY    72  67  84 S8        30.06R
Danville       CLEAR     68  66  94 CALM      30.04S
Decatur        PTCLDY    70  65  84 S3        30.05R
Effingham      PTCLDY    70  68  93 CALM      30.06F
Flora          CLEAR     72  68  89 CALM      30.05S
Galesburg      CLEAR     72  67  86 SE3       30.02R
Jacksonville   CLEAR     76  68  75 S7        30.02S
Lacon          CLEAR     73  69  88 SE3       30.01S FOG
La Salle       CLOUDY    75  68  79 S5        30.03R
Lincoln        CLOUDY    69  67  93 CALM      30.03S
Litchfield     CLEAR     71  67  88 SE6       30.04S

CITY           SKY/WX    TMP DP  RH WIND       PRES   REMARKS
Macomb         CLEAR     70  67  92 S5        30.03R
Mattoon        PTCLDY    70  67  90 S3        30.05R
Moline         CLEAR     74  67  78 S7        29.98R
Olney          CLEAR     70  68  93 CALM      30.06R
Paris          CLOUDY    70  67  90 S5        30.07S
Pontiac        CLOUDY    69  69  98 SE6       30.04S
Quincy         CLEAR     77  68  73 S6        30.00R
Rantoul        PTCLDY    72  69  89 CALM      30.06S
Robinson       PTCLDY    67  66  99 CALM      30.07S
Taylorville    CLEAR     73  66  79 SE7       30.04S
Terre Haute    MOCLDY    70  67  90 CALM      30.06S
$$


CITY           SKY/WX    TMP DP  RH WIND       PRES   REMARKS
Burlington     CLEAR     76  69  79 S10       29.98R
Chicago        CLOUDY    77  67  71 S6        30.02S
Des Moines     PTCLDY    78  69  73 S8        29.89S HX  80
Evansville     CLEAR     72  70  93 CALM      30.06R
Indianapolis   PTCLDY    74  68  81 CALM      30.07S
Kansas City    CLEAR     78  70  76 S15       29.93R HX  80
Milwaukee      CLEAR     72  69  90 CALM      30.02R FOG
St Louis       PTCLDY    79  70  74 S10       30.03R HX  82
$$





USA.gov is the U.S. government's official web portal to all federal, state and local government web resources and services.